LOT3HD EPSC-EPWA

Flight info

Callsign LOT3HD
Flight time 0h 42m
Altitude 29000
Route APNEZ DCT XERBI DCT DENKO DCT MOLIL DCT VEMAL DCT BIMPA
Aircraft E75L/M-SDE3GILORVW/S

Departure

Time 2026-05-06 09:34
Airport Solidarity Szczecin–Goleniów Airport (EPSC)

Arrival

Time 2026-05-06 10:16
Airport Warsaw Chopin Airport (EPWA)
Time Latitude Longitude Altitude Speed Heading
2026-05-06 08:56 53.59245 14.89590 131 ft 0 kts 311°
2026-05-06 08:59 53.59245 14.89591 131 ft 0 kts 311°
2026-05-06 09:16 53.59245 14.89592 131 ft 0 kts 311°
2026-05-06 09:24 53.59247 14.89588 131 ft 1 kts 311°
2026-05-06 09:24 53.59256 14.89567 127 ft 2 kts 300°
2026-05-06 09:25 53.59259 14.89545 129 ft 1 kts 257°
2026-05-06 09:25 53.59251 14.89534 129 ft 1 kts 197°
2026-05-06 09:25 53.59232 14.89542 128 ft 5 kts 149°
2026-05-06 09:25 53.59197 14.89571 132 ft 3 kts 168°
2026-05-06 09:26 53.59173 14.89558 132 ft 5 kts 204°
2026-05-06 09:26 53.59133 14.89507 132 ft 9 kts 220°
2026-05-06 09:26 53.59096 14.89463 132 ft 1 kts 177°
2026-05-06 09:26 53.59081 14.89474 132 ft 4 kts 144°
2026-05-06 09:27 53.59040 14.89548 133 ft 10 kts 130°
2026-05-06 09:27 53.58992 14.89637 134 ft 10 kts 131°
2026-05-06 09:27 53.58947 14.89724 135 ft 9 kts 131°
2026-05-06 09:27 53.58911 14.89795 136 ft 7 kts 130°
2026-05-06 09:28 53.58882 14.89855 137 ft 8 kts 130°
2026-05-06 09:28 53.58832 14.89952 138 ft 13 kts 131°
2026-05-06 09:28 53.58770 14.90072 140 ft 14 kts 130°
2026-05-06 09:28 53.58706 14.90195 141 ft 12 kts 131°
2026-05-06 09:29 53.58650 14.90304 143 ft 13 kts 131°
2026-05-06 09:29 53.58592 14.90415 144 ft 13 kts 131°
2026-05-06 09:29 53.58529 14.90539 145 ft 16 kts 131°
2026-05-06 09:29 53.58443 14.90709 148 ft 21 kts 133°
2026-05-06 09:30 53.58354 14.90878 150 ft 16 kts 131°
2026-05-06 09:30 53.58290 14.91002 151 ft 12 kts 130°
2026-05-06 09:30 53.58241 14.91096 152 ft 11 kts 131°
2026-05-06 09:30 53.58181 14.91213 154 ft 16 kts 130°
2026-05-06 09:31 53.58101 14.91372 156 ft 18 kts 131°
2026-05-06 09:31 53.58029 14.91514 158 ft 13 kts 130°
2026-05-06 09:31 53.57968 14.91634 159 ft 15 kts 132°
2026-05-06 09:31 53.57898 14.91764 161 ft 14 kts 136°
2026-05-06 09:32 53.57836 14.91756 161 ft 11 kts 219°
2026-05-06 09:32 53.57794 14.91693 161 ft 5 kts 221°
2026-05-06 09:32 53.57778 14.91671 161 ft 4 kts 221°
2026-05-06 09:32 53.57759 14.91620 162 ft 5 kts 275°
2026-05-06 09:33 53.57794 14.91537 162 ft 12 kts 311°
2026-05-06 09:33 53.57936 14.91265 160 ft 63 kts 311°
2026-05-06 09:33 53.58388 14.90393 148 ft 133 kts 311°
2026-05-06 09:33 53.59099 14.88981 412 ft 176 kts 313°
2026-05-06 09:34 53.59932 14.87332 1283 ft 193 kts 316°
2026-05-06 09:34 53.60841 14.85566 2239 ft 207 kts 317°
2026-05-06 09:34 53.61830 14.83698 3159 ft 215 kts 316°
2026-05-06 09:34 53.62790 14.81831 4044 ft 212 kts 315°
2026-05-06 09:35 53.63726 14.79836 4941 ft 219 kts 300°
2026-05-06 09:35 53.63956 14.77324 5790 ft 227 kts 260°
2026-05-06 09:35 53.63252 14.75013 6605 ft 228 kts 220°
2026-05-06 09:35 53.61954 14.73359 7510 ft 242 kts 210°
2026-05-06 09:36 53.60491 14.71763 8474 ft 259 kts 209°
2026-05-06 09:36 53.58892 14.70181 9472 ft 273 kts 197°
2026-05-06 09:36 53.56993 14.69844 10398 ft 284 kts 168°
2026-05-06 09:36 53.55172 14.71238 11332 ft 299 kts 141°
2026-05-06 09:37 53.53761 14.73911 12282 ft 314 kts 129°
2026-05-06 09:37 53.52443 14.76943 13253 ft 328 kts 128°
2026-05-06 09:37 53.51063 14.80089 14150 ft 340 kts 132°
2026-05-06 09:37 53.49507 14.83172 15021 ft 351 kts 133°
2026-05-06 09:38 53.47892 14.86325 15903 ft 362 kts 134°
2026-05-06 09:38 53.46220 14.89551 16820 ft 370 kts 134°
2026-05-06 09:38 53.44513 14.92852 17793 ft 378 kts 134°
2026-05-06 09:38 53.42780 14.96206 18695 ft 384 kts 134°
2026-05-06 09:39 53.41019 14.99605 19531 ft 390 kts 134°
2026-05-06 09:39 53.39231 15.03056 20186 ft 389 kts 134°
2026-05-06 09:39 53.37479 15.06435 20848 ft 379 kts 134°
2026-05-06 09:39 53.35770 15.09723 21519 ft 370 kts 134°
2026-05-06 09:40 53.34105 15.12923 22205 ft 362 kts 134°
2026-05-06 09:40 53.32432 15.16128 22918 ft 368 kts 134°
2026-05-06 09:40 53.28992 15.22716 23867 ft 389 kts 134°
2026-05-06 09:41 53.27201 15.26229 24158 ft 403 kts 134°
2026-05-06 09:41 53.25282 15.29629 24446 ft 414 kts 136°
2026-05-06 09:41 53.23257 15.33131 24739 ft 421 kts 137°
2026-05-06 09:41 53.21227 15.36601 25011 ft 415 kts 137°
2026-05-06 09:42 53.19223 15.40015 25275 ft 409 kts 137°
2026-05-06 09:42 53.17243 15.43382 25555 ft 404 kts 137°
2026-05-06 09:42 53.15289 15.46701 25823 ft 399 kts 137°
2026-05-06 09:42 53.13356 15.49981 26093 ft 395 kts 137°
2026-05-06 09:43 53.11444 15.53222 26368 ft 390 kts 137°
2026-05-06 09:43 53.09547 15.56433 26655 ft 390 kts 138°
2026-05-06 09:43 53.07631 15.59671 26957 ft 395 kts 138°
2026-05-06 09:43 53.05675 15.62918 27260 ft 399 kts 141°
2026-05-06 09:44 53.03475 15.65732 27576 ft 400 kts 149°
2026-05-06 09:44 53.01137 15.68248 27889 ft 403 kts 151°
2026-05-06 09:44 52.98672 15.70460 28209 ft 403 kts 158°
2026-05-06 09:44 52.96122 15.72443 28535 ft 407 kts 158°
2026-05-06 09:45 52.93527 15.74404 28702 ft 413 kts 159°
2026-05-06 09:45 52.90878 15.76388 28756 ft 422 kts 159°
2026-05-06 09:45 52.85438 15.80459 28769 ft 433 kts 158°
2026-05-06 09:46 52.80483 15.86191 28748 ft 442 kts 139°
2026-05-06 09:46 52.76929 15.94605 28744 ft 456 kts 120°
2026-05-06 09:47 52.75217 16.04812 28757 ft 470 kts 101°
2026-05-06 09:47 52.75147 16.15693 28745 ft 476 kts 94°
2026-05-06 09:48 52.75190 16.26626 28748 ft 476 kts 96°
2026-05-06 09:48 52.74967 16.37536 28746 ft 476 kts 98°
2026-05-06 09:49 52.74610 16.48428 28757 ft 476 kts 99°
2026-05-06 09:49 52.74180 16.59237 28751 ft 474 kts 101°
2026-05-06 09:50 52.73207 16.69935 28759 ft 471 kts 105°
2026-05-06 09:50 52.72120 16.80584 28751 ft 471 kts 105°
2026-05-06 09:51 52.71198 16.89512 28761 ft 471 kts 105°
2026-05-06 09:51 52.70091 17.00157 28754 ft 471 kts 106°
2026-05-06 09:52 52.68972 17.10823 28746 ft 472 kts 106°
2026-05-06 09:52 52.67843 17.21490 28761 ft 473 kts 106°
2026-05-06 09:53 52.66703 17.32165 28751 ft 473 kts 106°
2026-05-06 09:53 52.65553 17.42846 28754 ft 474 kts 106°
2026-05-06 09:54 52.64391 17.53536 28758 ft 474 kts 106°
2026-05-06 09:54 52.63220 17.64219 28752 ft 475 kts 106°
2026-05-06 09:55 52.62045 17.74838 28754 ft 475 kts 106°
2026-05-06 09:55 52.60854 17.85521 28752 ft 475 kts 106°
2026-05-06 09:56 52.59661 17.96196 28747 ft 474 kts 106°
2026-05-06 09:56 52.58426 18.06936 28738 ft 475 kts 106°
2026-05-06 09:57 52.57199 18.17530 28751 ft 475 kts 106°
2026-05-06 09:57 52.55953 18.28204 28740 ft 475 kts 106°
2026-05-06 09:58 52.54698 18.38869 28751 ft 476 kts 106°
2026-05-06 09:58 52.53431 18.49545 28735 ft 476 kts 106°
2026-05-06 09:59 52.52154 18.60219 28742 ft 477 kts 106°
2026-05-06 09:59 52.50867 18.70897 28735 ft 477 kts 106°
2026-05-06 10:00 52.49567 18.81591 28737 ft 478 kts 107°
2026-05-06 10:00 52.48255 18.92293 28737 ft 479 kts 107°
2026-05-06 10:01 52.46932 19.03003 28560 ft 479 kts 107°
2026-05-06 10:01 52.46269 19.08342 28191 ft 476 kts 107°
2026-05-06 10:01 52.45607 19.13645 27824 ft 474 kts 107°
2026-05-06 10:02 52.44945 19.18923 27426 ft 472 kts 107°
2026-05-06 10:02 52.44284 19.24183 26893 ft 469 kts 106°
2026-05-06 10:02 52.43628 19.29387 26369 ft 465 kts 106°
2026-05-06 10:02 52.42973 19.34547 25840 ft 461 kts 106°
2026-05-06 10:03 52.42320 19.39682 25265 ft 458 kts 105°
2026-05-06 10:03 52.41672 19.44759 24703 ft 454 kts 105°
2026-05-06 10:03 52.41025 19.49807 24154 ft 450 kts 105°
2026-05-06 10:03 52.40383 19.54802 23614 ft 447 kts 105°
2026-05-06 10:04 52.39742 19.59765 22997 ft 444 kts 105°
2026-05-06 10:04 52.39105 19.64696 22206 ft 440 kts 105°
2026-05-06 10:04 52.38474 19.69550 21450 ft 433 kts 105°
2026-05-06 10:04 52.37817 19.74321 20711 ft 426 kts 105°
2026-05-06 10:05 52.37262 19.79048 19985 ft 421 kts 104°
2026-05-06 10:05 52.36713 19.83728 19217 ft 417 kts 104°
2026-05-06 10:05 52.36175 19.88362 18455 ft 413 kts 104°
2026-05-06 10:05 52.35640 19.92959 17666 ft 410 kts 104°
2026-05-06 10:06 52.35109 19.97513 16822 ft 406 kts 104°
2026-05-06 10:06 52.34594 20.01920 15748 ft 391 kts 104°
2026-05-06 10:06 52.34077 20.06307 14622 ft 384 kts 104°
2026-05-06 10:06 52.33586 20.10483 13519 ft 366 kts 105°
2026-05-06 10:07 52.33109 20.14495 12326 ft 353 kts 105°
2026-05-06 10:07 52.32645 20.18376 11203 ft 343 kts 105°
2026-05-06 10:07 52.32197 20.22148 10125 ft 334 kts 104°
2026-05-06 10:07 52.31754 20.25848 8995 ft 329 kts 104°
2026-05-06 10:08 52.31317 20.29494 7848 ft 325 kts 104°
2026-05-06 10:08 52.30885 20.33090 6716 ft 320 kts 104°
2026-05-06 10:08 52.30460 20.36623 5527 ft 315 kts 103°
2026-05-06 10:08 52.30042 20.40099 4564 ft 305 kts 103°
2026-05-06 10:09 52.29652 20.43368 3992 ft 283 kts 104°
2026-05-06 10:09 52.29335 20.45970 3580 ft 268 kts 104°
2026-05-06 10:09 52.28981 20.48826 3377 ft 245 kts 104°
2026-05-06 10:09 52.28644 20.51515 3212 ft 238 kts 107°
2026-05-06 10:10 52.28237 20.54104 3108 ft 234 kts 109°
2026-05-06 10:10 52.27728 20.56555 3074 ft 223 kts 117°
2026-05-06 10:10 52.27124 20.58832 3076 ft 221 kts 118°
2026-05-06 10:10 52.26476 20.61164 3051 ft 225 kts 117°
2026-05-06 10:11 52.25872 20.63471 3047 ft 219 kts 118°
2026-05-06 10:11 52.25226 20.65693 3047 ft 211 kts 118°
2026-05-06 10:11 52.24615 20.67854 3029 ft 209 kts 119°
2026-05-06 10:11 52.23981 20.70000 3016 ft 212 kts 117°
2026-05-06 10:12 52.23411 20.72187 3035 ft 211 kts 119°
2026-05-06 10:12 52.22790 20.74370 3066 ft 212 kts 117°
2026-05-06 10:12 52.22216 20.76556 3080 ft 209 kts 117°
2026-05-06 10:12 52.21636 20.78656 2964 ft 194 kts 119°
2026-05-06 10:13 52.21106 20.80560 2776 ft 177 kts 120°
2026-05-06 10:13 52.20624 20.82307 2565 ft 159 kts 120°
2026-05-06 10:13 52.20180 20.83898 2222 ft 152 kts 119°
2026-05-06 10:13 52.19749 20.85433 1820 ft 146 kts 121°
2026-05-06 10:14 52.19317 20.86900 1450 ft 142 kts 119°
2026-05-06 10:14 52.18946 20.88316 1220 ft 129 kts 119°
2026-05-06 10:14 52.18583 20.89633 1052 ft 127 kts 120°
2026-05-06 10:14 52.18215 20.90919 835 ft 125 kts 121°
2026-05-06 10:15 52.17832 20.92244 730 ft 133 kts 119°
2026-05-06 10:15 52.17451 20.93612 534 ft 133 kts 117°
2026-05-06 10:15 52.17067 20.94964 367 ft 130 kts 118°
2026-05-06 10:15 52.16719 20.96184 335 ft 103 kts 115°
2026-05-06 10:16 52.16493 20.96999 333 ft 59 kts 114°
2026-05-06 10:16 52.16395 20.97393 334 ft 19 kts 103°
2026-05-06 10:16 52.16385 20.97616 336 ft 20 kts 85°
2026-05-06 10:16 52.16400 20.97783 335 ft 10 kts 51°
2026-05-06 10:17 52.16455 20.97785 335 ft 9 kts 311°
2026-05-06 10:17 52.16487 20.97683 336 ft 11 kts 294°
2026-05-06 10:17 52.16522 20.97555 336 ft 13 kts 295°
2026-05-06 10:17 52.16564 20.97408 334 ft 15 kts 294°
2026-05-06 10:18 52.16641 20.97291 335 ft 16 kts 332°
2026-05-06 10:18 52.16720 20.97222 335 ft 13 kts 332°
2026-05-06 10:18 52.16806 20.97147 336 ft 15 kts 332°
2026-05-06 10:18 52.16902 20.97062 336 ft 17 kts 331°
2026-05-06 10:19 52.17001 20.96978 337 ft 13 kts 332°
2026-05-06 10:19 52.17054 20.96931 336 ft 1 kts 320°
2026-05-06 10:19 52.17057 20.96910 336 ft 4 kts 266°
2026-05-06 10:19 52.17044 20.96862 336 ft 5 kts 259°
2026-05-06 10:20 52.17047 20.96797 336 ft 6 kts 276°
2026-05-06 10:20 52.17047 20.96796 336 ft 0 kts 276°